This demonstration page uses our WeatherBlox Daily Observations layout. Learn more.

Left ArrowRight Arrow

Hourly Observations for July 4, 2015

Temp ( °F °C ) Dew Point ( °F °C ) Humidity (%) Winds ( mph kmh ) Pressure ( in mb ) Visibility ( mi km ) Precip ( " mm )
12:53 am 00:53 Clear 83 28.3 60 15.6 46 46 W 5 7 29.78 1008 10 16 0.00 0.00
1:53 am 01:53 Clear 80 26.7 61 16.1 52 52 WNW 3 6 29.78 1008 10 16 0.00 0.00
2:53 am 02:53 Clear 81 27.2 62 16.7 53 53 Calm 29.78 1008 10 16 0.00 0.00
3:53 am 03:53 Clear 78 25.6 62 16.7 58 58 Calm 29.78 1008 10 16 0.00 0.00
4:53 am 04:53 Clear 77 25 62 16.7 60 60 NW 3 6 29.78 1008 10 16 0.00 0.00
5:53 am 05:53 Sunny 77 25 62 16.7 60 60 NNW 3 6 29.78 1008 10 16 0.00 0.00
6:53 am 06:53 Sunny 79 26.1 63 17.2 58 58 Calm 29.79 1009 10 16 0.00 0.00
7:53 am 07:53 Sunny 83 28.3 63 17.2 51 51 N 3 6 29.79 1009 10 16 0.00 0.00
8:53 am 08:53 Sunny 87 30.6 61 16.1 42 42 Calm 29.79 1009 10 16 0.00 0.00
9:53 am 09:53 Sunny 90 32.2 62 16.7 39 39 Calm 29.78 1008 10 16 0.00 0.00
10:53 am 10:53 Sunny 94 34.4 61 16.1 33 33 S 6 9 29.76 1008 10 16 0.00 0.00
11:53 am 11:53 Sunny 97 36.1 59 15 28 28 S 7 11 29.75 1007 10 16 0.00 0.00
12:53 pm 12:53 Sunny 100 37.8 58 14.4 25 25 VRB 3 6 29.73 1007 10 16 0.00 0.00
1:53 pm 13:53 Sunny 102 38.9 58 14.4 23 23 S 10 17 29.71 1006 10 16 0.00 0.00
2:53 pm 14:53 Sunny 102 38.9 59 15 24 24 VRB 7 11 29.68 1005 10 16 0.00 0.00
3:53 pm 15:53 Sunny 105 40.6 57 13.9 20 20 S 14 22 29.67 1005 10 16 0.00 0.00
4:53 pm 16:53 Sunny 105 40.6 58 14.4 21 21 SSE 15 24 29.65 1004 10 16 0.00 0.00
5:53 pm 17:53 Sunny 103 39.4 57 13.9 22 22 S 13 20 29.66 1004 10 16 0.00 0.00
6:53 pm 18:53 Sunny 100 37.8 61 16.1 28 28 SSE 10 17 29.66 1005 10 16 0.00 0.00
7:53 pm 19:53 Sunny 98 36.7 58 14.4 26 26 SSE 10 17 29.67 1005 10 16 0.00 0.00
8:53 pm 20:53 Clear 95 35 61 16.1 32 32 SSE 9 15 29.68 1005 10 16 0.00 0.00
9:53 pm 21:53 Clear 93 33.9 65 18.3 40 40 S 6 9 29.70 1006 10 16 0.00 0.00
10:53 pm 22:53 Clear 91 32.8 66 18.9 44 44 Calm 29.72 1006 10 16 0.00 0.00
11:53 pm 23:53 Clear 88 31.1 64 17.8 45 45 E 3 6 29.71 1006 10 16 0.00 0.00

Powered by AerisWeather